Snowfall_Accumulation
0.0 0.0 0.0 0.0 0.0 0.0 0.0 0.0 0.0 nan nan nan nan nan nan nan nan nan nan nan nan nan nan nan nan nan nan
0.0 0.0 0.0 0.0 0.0 0.0 0.0 0.0 0.0 nan nan nan nan nan nan nan nan nan nan nan nan nan nan nan nan nan nan
0.0 0.0 0.0 0.0 0.0 0.0 0.0 0.0 0.0 nan nan nan nan nan nan nan nan nan nan nan nan nan nan nan nan nan nan
0.0 0.0 0.0 0.0 0.0 0.0 0.0 0.0 0.0 0.0 nan nan nan nan nan nan nan nan nan nan nan nan nan nan nan nan nan
0.0 0.0 0.0 0.0 0.0 0.0 0.0 0.0 0.0 0.0 0.0 0.0 0.0 0.0 0.0 nan nan nan nan nan nan nan nan nan nan nan nan
0.0 0.0 0.0 0.0 0.0 0.0 0.0 0.1 0.3 0.0 0.0 0.0 0.0 0.0 0.0 0.0 nan nan nan nan nan nan nan nan nan nan nan
0.0 0.0 0.0 0.0 0.0 0.0 0.0 0.1 0.2 0.2 0.1 0.7 0.0 0.0 0.0 0.0 nan nan nan nan nan nan nan nan nan nan nan
0.0 0.0 0.0 0.0 0.0 0.0 0.0 0.0 0.2 0.2 0.0 2.3 0.5 0.3 0.0 0.0 nan nan nan nan nan nan nan nan nan nan nan
nan nan nan nan nan 0.0 0.3 0.9 1.5 0.9 0.3 0.8 1.0 1.0 0.8 0.1 0.0 nan nan nan nan nan nan nan nan nan 0.0
0.0 0.0 nan nan nan 0.0 0.1 1.3 1.7 2.4 0.7 3.5 1.4 1.7 4.0 1.1 0.4 0.0 0.0 nan nan nan nan nan nan 0.0 0.0
0.3 0.4 0.2 0.2 0.3 0.2 0.1 0.7 2.4 2.2 0.4 1.8 2.3 1.8 2.0 1.7 0.9 0.8 0.3 0.0 0.0 0.0 nan nan nan 0.0 0.3
0.5 0.5 0.7 0.8 0.7 0.7 0.2 0.4 0.6 0.4 0.1 0.2 7.7 2.8 4.5 4.9 2.6 1.2 1.2 0.5 0.1 0.4 0.3 nan nan nan nan
0.6 0.7 0.7 0.6 0.4 0.7 0.5 0.5 0.5 0.3 0.1 0.3 1.8 1.0 2.8 5.5 4.5 2.5 2.9 2.5 1.5 1.4 1.4 0.9 0.7 0.7 0.7
0.8 0.6 0.5 1.5 1.7 1.1 2.2 2.0 4.1 2.5 0.9 0.5 0.5 0.7 8.4 3.3 4.2 6.0 2.2 7.0 2.1 1.7 1.4 1.2 1.0 0.9 1.0
1.6 1.8 1.6 1.8 2.0 1.7 2.7 4.0 8.1 6.0 5.9 4.4 2.8 2.0 3.3 4.4 11.2 3.2 2.8 2.9 1.9 2.3 3.2 2.2 1.2 0.9 1.1
2.5 2.8 4.2 5.3 5.2 5.5 5.5 6.5 8.9 6.4 7.1 6.9 8.4 12.1 6.9 5.8 3.1 4.5 3.7 3.7 3.1 2.5 2.3 4.7 1.8 0.8 0.9
5.0 6.8 8.0 8.5 8.5 8.1 6.7 6.7 8.5 6.8 7.4 8.7 15.7 16.7 19.3 12.5 2.9 nan 7.2 4.6 4.0 4.7 1.9 2.5 3.2 1.2 0.8
Water_Equivalent
0.00 0.00 0.00 0.00 0.00 0.00 0.00 0.00 0.00 nan nan nan nan nan nan nan nan nan nan nan nan nan nan nan nan nan nan
0.00 0.00 0.00 0.00 0.00 0.00 0.00 0.00 0.00 nan nan nan nan nan nan nan nan nan nan nan nan nan nan nan nan nan nan
0.00 0.00 0.00 0.00 0.00 0.00 0.00 0.00 0.00 nan nan nan nan nan nan nan nan nan nan nan nan nan nan nan nan nan nan
0.00 0.00 0.00 0.00 0.00 0.00 0.00 0.00 0.00 0.00 nan nan nan nan nan nan nan nan nan nan nan nan nan nan nan nan nan
0.00 0.00 0.00 0.00 0.00 0.00 0.00 0.00 0.00 0.00 0.00 0.00 0.00 0.00 0.00 nan nan nan nan nan nan nan nan nan nan nan nan
0.00 0.00 0.00 0.00 0.00 0.00 0.00 0.04 0.14 0.00 0.00 0.00 0.00 0.00 0.00 0.00 nan nan nan nan nan nan nan nan nan nan nan
0.00 0.00 0.00 0.00 0.00 0.00 0.00 0.06 0.08 0.07 0.02 0.27 0.01 0.01 0.00 0.00 nan nan nan nan nan nan nan nan nan nan nan
0.00 0.00 0.00 0.00 0.00 0.00 0.00 0.01 0.07 0.09 0.00 0.70 0.20 0.13 0.02 0.00 nan nan nan nan nan nan nan nan nan nan nan
nan nan nan nan nan 0.01 0.12 0.33 0.51 0.31 0.13 0.29 0.38 0.40 0.33 0.04 0.00 nan nan nan nan nan nan nan nan nan 0.00
0.01 0.00 nan nan nan 0.00 0.05 0.42 0.53 0.66 0.25 0.93 0.42 0.48 0.94 0.38 0.14 0.01 0.00 nan nan nan nan nan nan 0.00 0.00
0.09 0.14 0.08 0.06 0.10 0.06 0.02 0.22 0.74 0.68 0.13 0.60 0.71 0.49 0.57 0.47 0.27 0.27 0.09 0.02 0.00 0.00 nan nan nan 0.00 0.07
0.15 0.13 0.20 0.25 0.23 0.21 0.07 0.14 0.21 0.12 0.04 0.05 2.62 0.77 1.19 1.12 0.58 0.33 0.36 0.17 0.04 0.12 0.08 nan nan nan nan
0.17 0.21 0.21 0.18 0.11 0.18 0.11 0.13 0.13 0.08 0.02 0.10 0.65 0.28 0.86 1.32 0.96 0.56 0.64 0.56 0.37 0.33 0.32 0.23 0.17 0.17 0.19
0.21 0.14 0.14 0.44 0.44 0.30 0.55 0.47 0.91 0.61 0.22 0.16 0.16 0.22 2.08 0.85 0.99 1.12 0.48 1.32 0.45 0.34 0.31 0.27 0.21 0.20 0.24
0.37 0.35 0.31 0.39 0.44 0.38 0.63 0.90 1.50 1.07 1.04 0.95 0.67 0.52 0.82 0.95 2.00 0.64 0.54 0.55 0.41 0.50 0.60 0.43 0.23 0.19 0.23
0.59 0.64 0.85 1.06 1.01 1.16 1.21 1.23 1.53 1.08 1.21 1.27 1.52 2.14 1.47 1.27 0.67 0.87 0.73 0.72 0.60 0.48 0.44 0.88 0.37 0.16 0.16
1.20 1.51 1.71 1.77 1.76 1.50 1.20 1.19 1.46 1.14 1.26 1.55 2.49 2.80 2.81 1.69 0.55 nan 1.43 0.94 0.83 0.85 0.38 0.47 0.68 0.31 0.14
SL_Ratio
nan nan nan nan nan nan nan nan nan nan nan nan nan nan nan nan nan nan nan nan nan nan nan nan nan nan nan
nan nan nan nan nan nan nan nan nan nan nan nan nan nan nan nan nan nan nan nan nan nan nan nan nan nan nan
nan nan nan nan nan nan nan nan nan nan nan nan nan nan nan nan nan nan nan nan nan nan nan nan nan nan nan
nan nan nan nan nan nan nan nan nan nan nan nan nan nan nan nan nan nan nan nan nan nan nan nan nan nan nan
nan nan nan nan nan nan nan nan nan nan nan nan nan nan nan nan nan nan nan nan nan nan nan nan nan nan nan
nan nan nan nan nan nan nan 2.5 2.5 0.0 nan 5.0 nan nan nan nan nan nan nan nan nan nan nan nan nan nan nan
nan nan nan nan nan nan 0.0 2.5 2.5 2.5 2.4 2.5 2.5 2.6 nan nan nan nan nan nan nan nan nan nan nan nan nan
nan nan nan nan nan nan nan 2.5 2.5 2.6 nan 3.4 2.5 2.5 2.4 nan nan nan nan nan nan nan nan nan nan nan nan
nan nan nan nan nan 3.0 2.8 2.7 2.9 2.8 2.5 2.8 2.6 2.6 2.5 2.7 nan nan nan nan nan nan nan nan nan nan nan
2.2 2.5 nan nan nan nan 2.5 3.0 3.3 3.6 2.6 3.7 3.2 3.4 4.2 2.8 2.8 2.5 nan nan nan nan nan nan nan nan nan
2.9 3.0 2.9 2.8 2.7 2.8 2.9 3.1 3.3 3.2 3.2 3.0 3.3 3.7 3.5 3.8 3.5 2.9 2.8 2.8 nan nan nan nan nan nan 4.4
3.4 3.5 3.3 3.3 3.2 3.1 3.2 2.9 2.8 3.1 2.5 3.1 2.9 3.7 3.8 4.4 4.5 3.7 3.4 3.0 3.1 3.4 4.2 nan nan nan nan
3.7 3.5 3.2 3.2 3.4 3.7 4.3 3.8 3.6 3.3 2.6 3.0 2.8 3.5 3.2 4.2 4.7 4.4 4.5 4.4 4.1 4.1 4.4 4.0 4.0 4.3 4.0
3.7 3.8 3.8 3.4 3.8 3.6 4.1 4.3 4.6 4.2 4.2 3.4 3.2 3.2 4.0 3.9 4.3 5.4 4.6 5.3 4.7 4.9 4.4 4.5 4.6 4.4 4.4
4.4 5.1 5.1 4.5 4.5 4.3 4.3 4.4 5.4 5.6 5.7 4.6 4.2 3.9 4.0 4.6 5.6 5.0 5.3 5.3 4.6 4.6 5.3 5.2 5.1 4.9 4.9
4.3 4.4 4.9 5.0 5.2 4.7 4.6 5.3 5.8 5.9 5.9 5.4 5.5 5.7 4.7 4.5 4.6 5.1 5.1 5.1 5.1 5.2 5.2 5.3 4.9 5.2 5.7
4.2 4.5 4.7 4.8 4.8 5.4 5.6 5.7 5.8 6.0 5.9 5.6 6.3 6.0 6.8 7.4 5.2 nan 5.1 4.9 4.8 5.6 4.9 5.2 4.7 3.9 5.6